Theta_e
298 298 297 298 297 297 297 297 297 297 297 298 298 298 298 298 298 297 298 297 298 295 295 299 302 304 304 306 311 309 314 315 318 324 321 317 317 318 325 333 335 321 322 324 327 332 333 339 341 338 333 342 338 340
298 297 297 298 297 297 297 297 297 297 297 298 298 298 298 298 298 297 297 297 297 296 296 298 300 301 302 304 303 302 312 314 319 318 318 319 325 323 326 332 328 333 327 323 324 327 333 339 342 339 338 339 338 338
297 299 299 299 297 296 297 297 297 298 298 298 298 298 298 298 298 298 297 297 298 293 295 296 301 304 304 302 302 303 304 313 315 311 315 318 319 319 327 328 331 328 329 334 332 333 337 338 335 333 336 338 337 334
298 297 296 296 297 297 297 297 297 298 297 298 298 298 298 299 298 298 298 297 297 294 299 300 302 303 304 304 303 302 305 310 311 312 315 316 317 314 320 321 323 324 329 330 331 332 333 333 332 333 336 334 332 331
297 297 298 298 297 297 297 297 297 298 298 298 298 298 299 299 299 299 299 299 298 298 299 298 300 305 306 306 303 302 302 302 306 309 315 319 315 315 316 314 320 322 326 330 333 329 330 330 332 333 333 333 330 328
296 297 298 298 297 297 297 297 297 297 298 298 298 298 298 298 300 300 299 302 300 299 299 301 300 301 305 306 303 301 300 302 306 310 311 313 313 319 325 320 318 323 324 321 329 328 328 329 332 332 332 331 329 326
297 296 296 296 297 297 296 296 296 297 297 297 296 295 296 299 300 300 302 303 301 300 300 303 302 303 306 309 303 302 303 304 308 310 312 313 316 318 319 319 319 318 319 328 328 328 331 333 331 331 329 328 326 324
298 298 297 296 296 296 296 296 296 297 297 294 294 295 299 301 302 302 305 302 302 302 304 304 305 307 310 310 312 304 305 305 306 309 309 311 313 317 319 316 316 316 319 322 328 327 325 325 328 328 326 325 324 323
297 298 297 297 296 296 296 296 296 297 294 296 300 300 302 303 303 306 303 304 303 303 306 308 311 311 306 308 308 311 307 309 306 310 310 311 312 316 317 319 317 316 318 320 326 325 326 326 329 327 326 324 323 322
297 297 297 297 296 295 296 296 296 294 295 301 303 304 307 304 308 304 304 306 305 306 304 303 300 307 306 309 310 310 309 312 315 311 307 310 311 311 317 318 316 316 314 315 321 323 324 325 325 325 325 324 323 322
297 297 297 298 296 295 296 296 295 294 298 300 299 302 301 306 306 305 308 309 308 310 306 302 302 306 305 312 311 308 312 311 317 316 314 312 317 319 316 317 315 315 316 316 312 314 316 320 322 324 324 323 322 321
297 297 297 297 296 295 296 296 295 295 296 298 298 299 301 301 306 308 310 310 310 313 311 311 312 304 307 308 311 310 315 312 317 315 319 318 322 319 315 316 316 314 315 318 317 316 314 318 319 321 323 322 322 323
298 297 297 297 296 295 296 295 295 296 299 301 299 301 301 300 301 309 313 314 315 313 315 314 314 309 309 309 312 311 316 316 313 318 321 322 319 318 313 314 314 315 316 317 317 318 315 316 319 320 321 323 322 322
298 297 297 297 295 294 295 295 296 297 299 299 299 296 299 299 303 306 310 310 313 314 314 312 312 310 308 311 313 319 316 315 319 323 322 319 318 317 312 313 312 314 315 316 317 318 315 317 319 322 323 322 322 321
298 297 297 296 295 294 294 295 296 296 298 301 302 299 303 304 303 306 306 306 306 305 306 309 308 307 310 313 313 318 320 321 322 320 318 317 316 316 313 312 312 313 315 317 317 316 317 320 320 319 322 322 323 321
297 297 297 296 295 294 295 296 296 297 299 300 301 303 301 303 304 307 304 308 304 304 304 304 307 309 314 315 317 319 320 322 320 317 315 314 314 312 311 312 312 314 317 316 316 315 318 318 317 317 319 320 320 320
297 296 296 296 295 295 296 297 299 298 300 302 301 298 298 299 300 303 303 306 306 308 308 306 307 312 312 315 317 319 320 316 313 312 311 312 313 313 314 314 317 316 315 317 318 317 315 316 317 316 315 315 316 316
297 297 297 296 295 296 297 297 298 301 303 299 301 301 300 304 307 304 303 302 305 305 309 311 310 312 314 315 317 315 312 310 309 311 312 312 312 313 313 316 314 314 315 317 317 316 316 317 317 316 315 315 315 315
297 297 296 297 298 300 299 300 299 300 300 300 302 302 303 303 301 302 301 306 308 305 304 305 309 312 313 311 312 311 311 310 311 312 312 312 315 315 314 314 314 314 314 314 315 315 316 316 316 316 316 315 315 315
298 297 296 296 298 300 300 294 298 297 300 298 299 299 299 300 303 306 308 308 307 311 311 312 313 311 311 310 309 310 310 310 311 313 314 313 313 313 313 313 313 313 313 314 314 314 315 315 315 315 315 315 315 315
297 296 296 298 300 299 298 295 296 298 298 300 300 303 303 305 308 308 307 305 309 308 309 308 308 308 307 307 307 309 310 311 313 313 314 314 313 313 313 313 313 313 313 314 314 313 314 314 314 314 314 314 314 314
296 298 299 299 299 296 294 296 297 297 299 299 302 305 307 308 306 305 303 306 306 307 307 308 307 307 307 307 309 313 313 314 313 313 313 313 313 313 313 313 313 312 312 312 313 313 313 313 313 314 314 314 315 314
299 300 300 299 297 291 295 299 300 300 302 305 305 307 307 306 305 303 307 305 305 304 304 305 305 306 308 312 313 313 313 313 313 313 312 312 312 312 312 312 312 312 312 312 313 313 313 313 313 313 314 314 315 314
297 298 297 296 295 296 300 303 302 304 303 306 306 307 306 306 305 304 304 305 305 306 310 312 313 313 312 312 312 312 312 313 312 312 312 312 312 312 312 312 312 312 313 314 314 314 314 314 315 315 315 314 314 311
291 294 295 291 301 302 303 303 303 304 306 308 307 307 306 305 305 304 303 305 307 308 311 313 313 313 313 313 312 312 312 312 312 312 312 312 312 312 311 311 310 310 311 311 309 309 308 308 308 309 309 309 307 306
294 301 303 301 302 302 304 305 304 307 308 310 308 307 306 307 307 305 306 307 306 306 308 312 313 313 313 313 313 313 312 312 313 312 312 312 312 312 311 310 310 308 307 306 304 304 304 303 303 304 303 304 304 304
304 303 303 302 303 303 303 303 304 305 311 311 309 308 307 308 307 308 307 306 306 306 310 313 313 313 313 313 312 313 313 313 313 312 312 312 312 312 312 311 311 310 307 305 305 305 304 304 304 304 303 303 303 303
302 301 304 303 302 302 305 307 308 311 311 309 309 309 308 307 308 307 306 307 308 311 312 313 313 313 313 312 312 311 312 312 312 313 312 312 312 311 311 311 310 309 308 308 306 305 305 305 305 304 304 304 303 303
301 301 302 305 306 306 308 310 309 308 307 308 309 308 308 305 305 306 307 308 310 313 312 312 312 312 311 310 310 310 308 307 308 305 305 305 307 308 310 310 309 308 307 305 305 304 305 304 305 305 305 304 303 303
308 303 307 309 310 311 309 307 307 306 304 305 306 306 305 305 307 306 307 309 310 311 310 311 311 309 308 308 307 307 306 306 306 306 304 304 306 306 304 305 304 305 305 304 303 303 303 304 305 305 304 302 301 299
310 310 310 310 311 310 308 307 307 307 306 306 306 306 306 305 306 305 305 306 306 306 307 306 306 307 308 307 307 305 305 306 306 306 306 306 306 306 306 306 306 305 305 306 306 305 305 304 303 302 301 298 297 296
309 310 309 310 310 309 308 308 307 307 307 307 306 306 306 307 308 307 306 305 306 306 306 306 306 306 306 306 306 306 307 306 306 306 306 307 307 307 307 307 307 307 307 307 307 305 305 303 301 299 297 296 295 294
309 309 310 310 310 310 309 309 309 309 308 308 308 306 306 307 309 308 309 307 308 307 306 306 307 307 307 307 307 306 306 305 305 305 306 306 306 307 307 307 307 307 307 306 305 304 302 301 298 297 296 295 294 293
Wind_Speed
10 10 10 11 11 12 11 11 10 11 12 13 13 13 13 13 14 14 1 9 4 1 5 4 3 3 1 2 2 4 3 3 3 3 1 2 1 1 2 1 1 5 5 3 2 2 5 4 5 4 3 2 5 5
11 11 10 10 11 12 10 11 10 9 11 12 13 13 12 11 11 11 3 7 9 3 5 6 13 18 11 4 3 2 3 2 2 3 0 0 1 2 1 2 2 1 3 3 6 5 3 3 5 7 4 2 1 6
12 13 14 11 11 11 10 10 9 11 11 12 13 12 12 11 9 7 8 10 3 2 5 4 5 2 8 26 25 3 3 3 1 3 2 2 1 1 1 3 1 3 1 2 2 3 3 6 7 4 4 2 1 5
10 10 8 9 10 11 10 9 9 11 9 12 13 13 12 12 10 7 6 5 4 1 2 5 6 8 5 6 18 26 1 2 2 2 1 1 1 1 2 3 2 4 2 1 3 5 3 5 4 5 5 7 9 7
12 11 11 11 12 11 10 9 9 12 11 12 13 13 13 11 10 8 9 8 9 1 2 5 19 3 5 6 14 20 17 2 2 3 2 2 2 2 2 2 3 4 5 4 5 4 3 4 4 4 5 2 5 10
12 11 12 12 11 10 11 10 10 12 13 13 13 13 12 11 7 3 2 3 10 6 1 4 5 5 9 2 11 10 6 2 1 2 3 2 2 2 1 3 4 3 2 4 3 3 4 3 3 1 0 3 4 7
14 11 10 10 10 10 11 10 11 13 14 15 14 13 12 8 5 2 2 1 5 8 0 4 5 4 5 1 2 2 6 2 3 2 2 3 2 4 2 4 6 6 6 5 3 2 3 2 2 2 3 4 10 10
15 12 11 9 9 9 10 11 12 14 16 15 14 12 7 4 4 4 3 11 5 3 1 2 4 5 6 2 2 1 3 1 1 3 1 2 2 2 3 7 5 4 7 7 5 3 3 4 3 6 7 7 7 6
14 12 11 9 9 8 9 11 13 16 17 16 9 3 1 1 1 2 4 6 7 1 1 1 2 3 5 2 1 3 2 0 1 3 3 4 2 3 3 6 6 6 6 6 4 2 4 2 2 4 5 5 8 7
15 13 12 10 8 8 8 10 13 15 12 5 2 1 1 2 0 5 0 1 1 1 1 2 1 3 1 2 2 2 1 2 1 4 2 3 3 2 3 5 6 8 8 6 3 2 3 5 5 5 7 6 6 7
16 13 12 11 8 7 6 9 12 14 2 1 3 1 2 4 1 2 1 1 2 2 3 3 4 2 1 1 2 1 1 1 1 2 3 0 1 3 7 9 7 6 7 6 8 7 5 6 6 6 6 7 11 13
15 13 12 11 7 6 5 7 9 6 5 5 2 3 2 1 0 1 1 1 2 2 3 2 2 5 3 1 1 1 1 2 4 1 2 3 2 2 5 9 10 7 7 9 8 9 11 10 12 8 7 11 15 18
15 14 12 10 7 5 4 4 5 7 3 2 1 1 3 1 4 2 2 2 2 4 2 3 3 1 3 2 1 1 1 4 2 1 3 2 2 3 5 7 10 11 9 11 9 11 11 14 11 13 9 13 20 19
16 14 12 10 7 6 4 2 4 3 2 1 2 2 3 2 4 3 3 2 3 2 4 2 2 0 1 2 1 1 3 1 3 1 2 2 5 9 5 6 7 11 9 10 9 11 9 7 6 7 9 13 18 17
16 13 12 9 8 6 4 2 3 3 1 1 2 2 4 3 3 3 2 1 1 2 2 2 2 2 2 1 1 3 2 3 2 2 1 3 9 13 11 9 9 9 9 12 10 7 4 14 12 8 10 14 18 19
16 11 12 9 8 7 5 3 2 2 1 1 2 2 1 1 3 2 2 1 2 2 1 3 2 2 2 1 2 4 2 1 2 2 4 6 8 9 9 9 10 13 10 9 10 5 11 13 13 14 15 13 14 17
15 4 9 10 9 8 5 2 2 2 2 2 2 1 2 3 4 2 1 2 6 1 0 2 2 4 1 2 3 1 2 2 6 7 6 7 10 10 9 9 11 3 5 5 7 14 17 20 23 20 15 14 19 16
8 10 9 12 12 7 3 4 2 1 3 2 1 3 2 1 1 1 3 2 3 2 2 1 1 1 3 3 2 1 2 5 4 7 8 10 10 11 10 2 6 7 7 10 16 19 20 17 16 15 20 16 22 21
14 12 11 9 4 3 3 3 2 1 2 2 2 2 1 1 2 3 3 4 2 2 1 1 1 3 3 1 2 6 6 8 9 8 8 14 13 4 10 12 11 11 13 14 15 16 17 16 18 21 18 18 18 17
11 8 6 4 1 1 1 2 1 1 1 2 2 3 2 2 3 3 3 2 2 2 2 2 2 1 1 4 4 7 7 7 8 4 3 4 9 13 11 11 11 14 17 19 20 20 21 22 21 20 20 20 20 18
7 5 4 1 1 1 2 0 2 0 0 2 2 3 3 2 2 3 2 3 2 1 2 1 2 3 7 11 14 15 12 9 2 2 2 4 9 13 14 15 17 15 16 16 16 18 19 17 18 21 23 23 24 24
5 3 2 2 3 3 1 0 2 1 2 1 2 2 2 2 3 2 3 1 2 2 2 2 4 6 7 7 11 6 6 10 13 13 13 13 7 8 11 14 16 15 17 16 17 17 17 19 23 25 25 22 22 23
3 3 2 3 1 4 3 1 3 3 3 3 2 1 1 2 2 4 1 1 2 4 8 8 11 14 7 10 16 17 16 15 11 13 15 18 20 20 20 19 17 18 16 16 18 19 20 24 24 21 18 16 17 19
3 2 2 2 2 2 2 3 1 1 2 2 1 2 3 2 3 2 2 2 3 10 3 4 7 7 11 12 7 12 15 17 18 18 17 19 16 16 18 18 20 20 20 21 22 20 18 18 18 18 17 19 19 20
4 4 3 3 2 3 3 2 2 1 1 1 2 3 2 2 3 3 3 4 6 6 5 11 12 8 6 7 11 14 16 16 15 13 17 19 20 21 21 24 22 18 20 26 21 23 22 22 23 21 20 20 21 19
3 2 2 1 0 1 1 2 2 2 2 2 3 1 2 2 4 3 4 4 4 5 6 5 6 7 7 11 6 10 12 17 22 17 17 17 17 16 13 13 14 16 18 23 24 23 22 22 22 22 19 16 14 12
1 1 1 1 0 1 1 1 1 1 2 2 1 1 2 4 5 3 3 2 2 5 11 13 13 12 10 12 18 18 17 18 20 15 14 16 16 18 20 17 13 14 16 17 17 18 18 16 15 14 12 10 9 7
2 1 1 1 1 1 1 1 1 1 2 1 2 2 2 3 1 3 2 10 12 15 18 16 16 17 16 16 14 16 18 20 20 21 21 20 19 18 17 17 16 15 13 11 11 11 11 9 9 8 8 8 8 8
1 2 1 1 1 2 2 0 1 0 3 2 2 2 3 3 3 1 2 4 10 14 18 16 14 14 13 14 14 14 14 16 19 9 8 4 9 12 11 10 9 9 10 11 10 9 9 9 9 10 11 13 13 13
2 3 2 2 2 2 2 3 2 3 4 3 3 2 2 2 3 1 8 13 13 12 10 10 9 9 10 11 11 10 9 11 13 14 6 3 4 6 7 8 9 7 5 6 8 7 6 9 12 13 14 15 15 14
1 2 3 3 2 3 3 1 5 4 3 3 4 4 2 1 8 12 11 12 12 12 12 10 9 8 10 10 9 8 5 4 6 8 9 8 7 6 4 2 1 3 2 3 6 10 13 13 13 15 15 14 13 13
3 3 2 5 4 5 5 4 3 4 4 4 4 4 4 4 4 4 3 11 15 14 13 14 14 12 12 12 11 9 9 9 8 8 8 7 7 6 5 4 4 5 5 7 9 11 11 13 14 13 13 12 12 12
4 4 4 3 4 5 4 4 5 3 4 4 4 2 1 2 1 1 2 4 6 10 10 11 12 12 12 12 11 11 10 9 9 8 6 6 5 4 4 4 4 5 6 9 10 10 11 11 12 11 10 11 11 9
Wind_Direction
284 284 296 311 322 328 329 334 343 347 346 350 349 350 355 359 1 1 17 33 25 188 275 223 258 227 359 104 150 289 6 342 3 67 124 267 204 299 17 339 184 176 146 187 87 114 264 19 301 193 238 82 140 105
280 282 287 296 312 320 323 327 334 340 350 350 346 346 349 353 354 352 318 339 328 199 251 269 264 263 248 217 140 313 199 248 221 83 71 213 338 2 146 232 353 256 182 194 181 216 286 290 272 307 296 303 176 118
276 280 282 287 305 314 317 322 326 338 339 340 338 340 341 343 339 334 311 320 320 11 302 330 242 285 242 234 226 170 285 241 349 169 168 170 55 115 195 249 287 328 146 170 42 237 296 307 309 321 329 14 85 142
270 282 287 291 299 304 310 314 324 324 329 330 333 333 332 331 325 313 280 272 308 89 293 280 320 309 282 216 214 211 241 32 78 62 84 136 151 130 254 266 220 207 127 179 272 273 289 282 298 336 16 74 87 79
262 271 280 286 298 293 302 302 309 320 326 326 325 324 323 323 323 301 262 253 233 129 276 287 309 296 309 251 214 209 217 63 37 4 23 261 271 81 334 344 261 186 177 169 229 223 154 241 289 353 15 55 101 117
262 273 273 284 289 288 295 296 302 312 316 318 319 319 321 325 322 308 10 214 211 195 309 320 308 290 315 318 176 172 138 133 146 163 233 279 257 84 77 278 272 301 246 202 282 248 214 229 146 338 49 133 118 111
257 265 271 284 281 289 292 297 302 308 313 314 315 316 319 315 278 206 160 93 160 194 323 310 325 283 298 14 128 122 166 176 158 204 223 189 235 162 186 218 250 293 311 307 113 325 344 344 162 96 77 89 105 101
251 256 266 276 280 283 289 300 305 310 312 311 307 306 310 313 257 287 27 202 192 242 261 343 280 332 3 360 35 35 125 102 228 211 91 182 356 101 265 261 267 282 287 297 291 168 179 278 323 91 128 126 121 119
244 249 259 264 279 281 289 303 311 313 316 312 294 251 153 263 344 359 16 171 187 10 309 289 303 277 348 10 337 13 75 158 280 198 213 123 176 211 267 300 330 302 240 230 217 325 342 296 136 142 121 133 138 152
237 244 247 253 272 281 292 308 315 321 326 64 101 132 95 338 228 148 221 118 218 203 151 240 237 270 61 7 329 360 37 237 251 243 101 154 223 196 265 308 300 327 332 320 103 223 244 278 235 191 193 174 170 162
228 232 235 241 259 271 290 311 325 333 354 55 32 51 341 154 241 220 215 218 195 240 199 234 197 261 291 80 259 130 288 274 283 274 132 247 34 330 317 324 324 317 315 305 266 260 235 240 219 189 185 183 166 166
219 219 221 230 243 254 278 314 337 2 11 323 304 309 336 30 198 267 244 170 220 257 189 210 230 198 275 151 89 312 271 33 247 93 155 174 163 264 315 307 316 311 313 304 286 266 250 235 236 211 183 179 180 176
212 211 210 220 229 233 255 304 330 332 334 72 122 24 64 283 46 228 214 183 329 329 327 6 311 176 352 24 250 48 288 237 348 177 161 90 241 332 301 300 311 308 311 294 298 305 253 232 231 221 209 193 170 168
202 204 203 211 216 219 233 274 327 342 307 117 120 351 154 274 244 206 197 216 225 253 306 316 281 30 312 1 227 293 253 358 280 173 75 294 305 316 302 291 303 313 310 306 301 307 260 195 175 205 216 187 160 153
188 192 194 206 209 210 216 233 295 318 303 139 122 217 222 243 262 251 230 298 296 341 331 356 25 46 304 314 229 317 271 253 29 43 297 311 309 306 309 308 301 307 309 306 304 309 181 143 138 127 146 169 168 160
173 166 202 201 198 197 195 245 270 199 227 183 214 282 290 112 297 348 15 341 10 342 67 49 41 351 277 318 272 227 239 269 88 274 283 285 273 276 289 299 296 291 293 304 303 230 136 123 118 109 114 129 145 153
154 149 162 173 176 176 183 208 190 219 240 237 272 227 212 252 239 269 268 335 323 350 359 105 101 219 326 265 256 265 341 332 306 304 293 283 290 292 294 292 297 23 344 353 77 99 105 113 108 98 91 95 112 122
127 128 136 155 160 158 186 206 232 232 264 261 324 322 286 227 267 3 338 321 14 5 351 250 143 201 234 251 273 3 307 306 276 298 300 300 295 284 278 275 74 64 47 70 84 90 94 94 93 99 92 105 99 99
126 118 124 133 144 179 172 211 192 252 273 337 319 359 355 308 284 277 262 279 267 201 117 61 215 223 240 273 319 314 310 305 301 302 299 304 305 116 89 81 78 79 75 75 83 88 90 101 97 98 105 98 101 107
117 120 130 132 56 163 111 323 206 164 338 293 22 355 301 271 297 307 318 358 294 204 194 222 232 178 274 294 281 283 286 288 296 291 312 0 59 86 81 87 81 85 88 84 80 84 83 80 82 92 99 99 99 95
99 114 114 34 27 46 136 348 27 181 54 79 333 339 291 300 348 359 334 335 314 311 263 275 261 267 272 276 278 277 283 289 336 32 357 68 64 82 80 74 78 72 77 80 81 73 76 82 88 92 94 92 96 103
103 80 41 21 38 23 40 195 152 304 74 233 337 322 294 336 352 355 309 293 280 265 241 275 288 300 299 292 301 49 70 62 65 65 67 76 73 72 70 73 82 78 73 75 82 84 83 89 96 100 103 100 97 105
62 33 37 22 56 37 278 16 66 16 27 337 326 2 29 354 318 308 338 311 273 261 264 268 270 271 256 78 73 59 58 68 68 69 73 78 77 76 77 70 77 86 84 76 90 94 96 106 108 109 112 111 107 104
34 40 42 35 108 264 327 37 30 17 0 351 18 33 13 352 335 16 315 278 264 301 309 51 90 81 67 60 56 49 45 72 71 63 68 83 80 70 74 74 78 88 96 102 102 106 106 105 109 110 112 109 108 107
63 332 76 330 355 46 35 350 3 17 11 347 64 22 8 342 12 4 327 300 333 356 22 76 68 59 73 68 61 55 63 74 77 71 60 86 91 82 72 74 78 91 108 104 97 102 105 108 107 106 107 109 110 111
78 5 38 95 2 64 317 355 38 2 346 71 45 15 334 10 30 4 319 310 331 348 6 36 71 81 67 67 73 61 60 89 83 66 60 85 88 91 87 84 83 75 96 106 106 103 105 106 100 103 101 102 108 108
98 230 61 32 39 103 203 267 292 333 48 69 130 17 15 51 12 306 275 298 287 356 67 86 87 86 89 85 84 90 92 99 95 94 93 89 88 94 98 96 89 93 104 103 103 105 106 106 106 104 97 91 86 86
183 187 155 173 209 213 256 213 182 76 88 105 132 44 65 81 270 242 252 356 32 81 85 93 98 100 94 92 92 96 100 104 105 104 98 90 89 93 93 93 95 98 94 91 97 105 107 116 113 103 92 92 96 101
194 180 150 191 213 210 237 12 46 227 161 157 125 105 129 188 226 288 352 85 123 121 113 110 103 101 91 86 93 106 107 111 106 84 75 56 68 64 82 92 93 96 97 91 100 99 116 117 121 120 105 102 110 116
97 172 204 49 43 337 296 172 171 167 185 186 142 82 57 44 3 199 156 139 149 150 140 135 131 124 117 107 99 98 92 95 97 102 110 111 97 93 91 97 99 110 118 125 131 132 135 135 131 125 119 114 110 101
55 4 32 9 350 336 325 354 79 80 63 48 34 88 96 51 51 65 107 128 132 129 126 119 120 144 148 151 144 125 88 115 115 109 105 103 101 96 95 95 155 181 166 170 147 143 142 132 121 114 109 104 102 102
43 57 62 42 17 340 17 42 33 43 16 53 19 43 34 47 41 5 99 145 135 130 137 134 129 138 137 132 129 130 134 137 136 144 148 139 128 119 123 126 124 137 130 132 128 128 127 123 119 113 110 109 112 113
357 34 51 50 23 31 348 62 34 37 24 44 19 45 89 121 98 314 100 187 159 146 140 136 142 143 138 134 133 133 129 121 118 128 126 120 112 110 125 137 139 136 135 130 126 125 121 119 116 115 120 129 130 126